When you browse on this site, cookies collect data to enhance your experience and personalize the content and advertising you see.
Visit our Privacy Policy to learn more. By continuing to use the site, you agree to this use of cookies and data.
  • En España
  • Lista de países
  • Para 7 días
  • Temperatura del agua
  • El tiempo en el mapa
  • Informadores
  • user-avatar
    Iniciar sesión

    Tiempo cada hora Maksaky

    Hoy, 21 Septiembre, Sábado

    Tiempo Temperatura Precipitaciones Viento Presión Humedad
    00:00 +4°C° 0 mm 3 mps 753 mmHg 92%
    01:00 +4°C° 0 mm 3 mps 753 mmHg 91%
    02:00 +4°C° 0 mm 3 mps 753 mmHg 91%
    03:00 +3°C° 0 mm 3 mps 754 mmHg 93%
    04:00 +2°C° 0 mm 3 mps 754 mmHg 95%
    05:00 0°C° 0 mm 4 mps 754 mmHg 97%
    06:00 +1°C° 0 mm 4 mps 754 mmHg 92%
    07:00 +3°C° 0 mm 4 mps 754 mmHg 87%
    08:00 +4°C° 0 mm 4 mps 755 mmHg 83%
    09:00 +6°C° 0 mm 4 mps 755 mmHg 71%
    10:00 +8°C° 0 mm 4 mps 755 mmHg 59%
    11:00 +9°C° 0 mm 5 mps 755 mmHg 48%
    12:00 +11°C° 0 mm 4 mps 754 mmHg 45%
    13:00 +11°C° 0 mm 4 mps 754 mmHg 42%
    14:00 +12°C° 0 mm 4 mps 754 mmHg 41%
    15:00 +12°C° 0 mm 4 mps 754 mmHg 42%
    16:00 +12°C° 0 mm 3 mps 753 mmHg 43%
    17:00 +11°C° 0 mm 3 mps 752 mmHg 44%
    18:00 +11°C° 0.1 mm 4 mps 752 mmHg 55%
    19:00 +10°C° 0.1 mm 4 mps 751 mmHg 65%
    20:00 +8°C° 0.1 mm 5 mps 751 mmHg 75%
    21:00 +8°C° 0.4 mm 5 mps 750 mmHg 81%
    22:00 +8°C° 0.4 mm 6 mps 750 mmHg 87%
    23:00 +8°C° 0.4 mm 6 mps 749 mmHg 93%

    Mañana, 22 Septiembre, Domingo

    Tiempo Temperatura Precipitaciones Viento Presión Humedad
    00:00 +9°C° 0.5 mm 7 mps 749 mmHg 93%
    01:00 +10°C° 0.5 mm 7 mps 748 mmHg 92%
    02:00 +11°C° 0.5 mm 7 mps 748 mmHg 92%
    03:00 +11°C° 0.3 mm 7 mps 748 mmHg 92%
    04:00 +11°C° 0.3 mm 7 mps 747 mmHg 91%
    05:00 +11°C° 0.3 mm 7 mps 747 mmHg 91%
    06:00 +11°C° 0.1 mm 7 mps 748 mmHg 89%
    07:00 +11°C° 0.1 mm 8 mps 748 mmHg 86%
    08:00 +11°C° 0.1 mm 8 mps 748 mmHg 84%
    09:00 +13°C° 0 mm 8 mps 748 mmHg 77%
    10:00 +15°C° 0 mm 8 mps 748 mmHg 70%
    11:00 +16°C° 0 mm 8 mps 748 mmHg 63%
    12:00 +16°C° 0.1 mm 8 mps 748 mmHg 62%
    13:00 +16°C° 0.1 mm 8 mps 748 mmHg 60%
    14:00 +16°C° 0.1 mm 9 mps 748 mmHg 59%
    15:00 +16°C° 0.1 mm 8 mps 748 mmHg 64%
    16:00 +15°C° 0.1 mm 7 mps 748 mmHg 69%
    17:00 +14°C° 0.1 mm 6 mps 748 mmHg 74%
    18:00 +13°C° 0.5 mm 5 mps 749 mmHg 79%
    19:00 +11°C° 0.5 mm 4 mps 749 mmHg 84%
    20:00 +10°C° 0.5 mm 3 mps 749 mmHg 88%
    21:00 +9°C° 0.6 mm 3 mps 750 mmHg 88%
    22:00 +8°C° 0.6 mm 3 mps 750 mmHg 87%
    23:00 +8°C° 0.6 mm 3 mps 751 mmHg 86%

    Pasado mañana, 23 Septiembre, Lunes

    Tiempo Temperatura Precipitaciones Viento Presión Humedad
    00:00 +7°C° 0.1 mm 3 mps 751 mmHg 86%
    01:00 +7°C° 0.1 mm 3 mps 752 mmHg 85%
    02:00 +7°C° 0.1 mm 3 mps 753 mmHg 85%
    03:00 +4°C° 0 mm 3 mps 753 mmHg 86%
    04:00 +4°C° 0 mm 2 mps 753 mmHg 87%
    05:00 +3°C° 0 mm 2 mps 753 mmHg 88%
    06:00 +3°C° 0 mm 3 mps 754 mmHg 84%
    07:00 +4°C° 0 mm 3 mps 754 mmHg 79%
    08:00 +5°C° 0 mm 3 mps 755 mmHg 75%
    09:00 +7°C° 0 mm 3 mps 755 mmHg 66%
    10:00 +8°C° 0 mm 3 mps 755 mmHg 57%
    11:00 +10°C° 0 mm 3 mps 755 mmHg 48%
    12:00 +11°C° 0 mm 3 mps 755 mmHg 44%
    13:00 +12°C° 0 mm 2 mps 755 mmHg 40%
    14:00 +13°C° 0 mm 2 mps 755 mmHg 36%
    15:00 +12°C° 0 mm 2 mps 755 mmHg 40%
    16:00 +10°C° 0 mm 2 mps 755 mmHg 44%
    17:00 +11°C° 0 mm 1 mps 754 mmHg 47%
    18:00 +8°C° 0 mm 2 mps 755 mmHg 51%
    19:00 +7°C° 0 mm 2 mps 755 mmHg 55%
    20:00 +5°C° 0 mm 2 mps 755 mmHg 58%
    21:00 +5°C° 0 mm 2 mps 755 mmHg 60%
    22:00 +4°C° 0 mm 2 mps 755 mmHg 62%
    23:00 +4°C° 0 mm 2 mps 755 mmHg 64%

    24 Septiembre, Martes

    Tiempo Temperatura Precipitaciones Viento Presión Humedad
    00:00 +3°C° 0 mm 2 mps 756 mmHg 65%
    01:00 +4°C° 0 mm 1 mps 756 mmHg 66%
    02:00 +4°C° 0 mm 1 mps 756 mmHg 67%
    03:00 +4°C° 0 mm 1 mps 755 mmHg 68%
    04:00 +3°C° 0 mm 1 mps 755 mmHg 70%
    05:00 +3°C° 0 mm 1 mps 755 mmHg 71%
    06:00 +4°C° 0 mm 1 mps 755 mmHg 66%
    07:00 +6°C° 0 mm 1 mps 755 mmHg 60%
    08:00 +7°C° 0 mm 2 mps 755 mmHg 55%
    09:00 +8°C° 0 mm 2 mps 755 mmHg 50%
    10:00 +10°C° 0 mm 2 mps 755 mmHg 45%
    11:00 +12°C° 0 mm 2 mps 755 mmHg 39%
    12:00 +13°C° 0 mm 2 mps 755 mmHg 38%
    13:00 +13°C° 0 mm 2 mps 754 mmHg 36%
    14:00 +14°C° 0 mm 1 mps 754 mmHg 34%
    15:00 +13°C° 0 mm 2 mps 754 mmHg 38%
    16:00 +12°C° 0 mm 2 mps 753 mmHg 42%
    17:00 +10°C° 0 mm 2 mps 753 mmHg 46%
    18:00 +9°C° 0 mm 2 mps 753 mmHg 48%
    19:00 +7°C° 0 mm 3 mps 753 mmHg 50%
    20:00 +5°C° 0 mm 3 mps 753 mmHg 53%
    21:00 +4°C° 0 mm 3 mps 753 mmHg 55%
    22:00 +4°C° 0 mm 3 mps 753 mmHg 57%
    23:00 +3°C° 0 mm 3 mps 753 mmHg 59%

    25 Septiembre, Miércoles

    Tiempo Temperatura Precipitaciones Viento Presión Humedad
    00:00 +3°C° 0 mm 3 mps 753 mmHg 60%
    01:00 +3°C° 0 mm 3 mps 753 mmHg 61%
    02:00 +3°C° 0 mm 3 mps 753 mmHg 61%
    03:00 +2°C° 0 mm 3 mps 753 mmHg 62%
    04:00 +2°C° 0 mm 3 mps 753 mmHg 62%
    05:00 +2°C° 0 mm 3 mps 752 mmHg 63%
    06:00 +4°C° 0 mm 4 mps 752 mmHg 58%
    07:00 +5°C° 0 mm 4 mps 752 mmHg 54%
    08:00 +7°C° 0 mm 4 mps 752 mmHg 49%
    09:00 +10°C° 0 mm 4 mps 752 mmHg 47%
    10:00 +12°C° 0 mm 4 mps 752 mmHg 44%
    11:00 +14°C° 0 mm 4 mps 752 mmHg 41%
    12:00 +15°C° 0 mm 4 mps 752 mmHg 43%
    13:00 +17°C° 0 mm 4 mps 751 mmHg 44%
    14:00 +17°C° 0 mm 4 mps 751 mmHg 45%
    15:00 +17°C° 0 mm 4 mps 751 mmHg 50%
    16:00 +15°C° 0 mm 4 mps 750 mmHg 54%
    17:00 +14°C° 0 mm 3 mps 750 mmHg 59%
    18:00 +14°C° 0 mm 4 mps 750 mmHg 60%
    19:00 +13°C° 0 mm 4 mps 750 mmHg 61%
    20:00 +12°C° 0 mm 5 mps 750 mmHg 63%
    21:00 +12°C° 0.1 mm 5 mps 750 mmHg 67%
    22:00 +12°C° 0.1 mm 5 mps 749 mmHg 72%
    23:00 +12°C° 0.1 mm 5 mps 749 mmHg 76%

    26 Septiembre, Jueves

    Tiempo Temperatura Precipitaciones Viento Presión Humedad
    00:00 +12°C° 0.1 mm 4 mps 749 mmHg 78%
    01:00 +12°C° 0.1 mm 4 mps 749 mmHg 79%
    02:00 +12°C° 0.1 mm 4 mps 748 mmHg 81%
    03:00 +12°C° 0.2 mm 4 mps 748 mmHg 81%
    04:00 +12°C° 0.2 mm 4 mps 748 mmHg 81%
    05:00 +12°C° 0.2 mm 4 mps 748 mmHg 81%
    06:00 +12°C° 0.1 mm 4 mps 748 mmHg 81%
    07:00 +13°C° 0.1 mm 4 mps 748 mmHg 80%
    08:00 +13°C° 0.1 mm 4 mps 748 mmHg 80%
    09:00 +13°C° 0.2 mm 4 mps 748 mmHg 79%
    10:00 +14°C° 0.2 mm 4 mps 748 mmHg 79%
    11:00 +14°C° 0.2 mm 4 mps 748 mmHg 78%
    12:00 +13°C° 0.5 mm 4 mps 748 mmHg 82%
    13:00 +13°C° 0.5 mm 5 mps 747 mmHg 85%
    14:00 +12°C° 0.5 mm 5 mps 747 mmHg 88%
    15:00 +13°C° 0.2 mm 5 mps 747 mmHg 89%
    16:00 +13°C° 0.2 mm 5 mps 747 mmHg 89%
    17:00 +13°C° 0.2 mm 4 mps 747 mmHg 90%
    18:00 +13°C° 0 mm 4 mps 747 mmHg 92%
    19:00 +12°C° 0 mm 3 mps 746 mmHg 94%
    20:00 +12°C° 0 mm 3 mps 746 mmHg 96%
    21:00 +12°C° 0.2 mm 3 mps 746 mmHg 96%
    22:00 +13°C° 0.2 mm 2 mps 746 mmHg 97%
    23:00 +13°C° 0.2 mm 2 mps 746 mmHg 98%
    Mostrar más